Wind_Speed
13 13 13 12 12 14 14 15 15 15 14 14 16 18 22 26 30 33 35 36 35 32 31 31 30 29 28 27 27 26 23 21 20 20 20 20 19 20 20 19 19 19 20 21
12 12 12 13 12 14 15 14 13 15 14 13 15 18 20 24 27 29 31 33 34 33 32 32 32 31 31 32 31 27 25 24 23 22 22 22 21 20 20 20 20 21 22 23
11 11 11 12 12 13 15 13 12 14 15 14 16 18 18 22 24 26 28 30 31 31 31 32 32 31 32 33 31 30 27 25 24 25 24 22 21 20 21 21 22 23 24 25
10 10 10 10 11 12 13 13 13 14 16 17 17 17 18 20 21 23 25 27 28 28 30 31 32 32 31 31 31 30 29 28 27 26 25 25 24 24 24 24 25 25 26 26
10 11 11 11 10 12 12 15 15 16 16 18 19 19 19 20 21 22 23 24 26 27 28 30 31 32 32 33 34 32 30 29 27 26 27 27 27 26 25 26 27 26 26 26
11 11 12 11 11 12 12 15 17 18 18 17 18 21 20 19 20 21 24 25 27 27 29 30 32 33 33 33 31 30 29 28 27 27 28 28 28 27 27 27 27 26 27 28
13 12 11 11 12 13 13 14 16 17 18 17 18 20 21 22 20 21 23 25 26 28 29 30 31 32 32 32 29 27 28 28 27 27 28 28 29 29 28 28 28 27 28 29
13 9 9 11 13 14 14 14 14 16 17 18 20 22 22 22 22 23 23 24 25 26 28 28 29 30 29 29 29 28 27 27 28 29 29 29 30 31 30 29 28 29 29 30
11 8 7 10 13 13 14 13 14 16 17 17 19 21 21 22 23 24 25 24 24 26 26 27 28 28 28 28 28 28 29 29 30 31 31 30 31 31 32 31 31 31 32 32
9 6 5 9 11 12 13 13 14 16 17 16 17 20 22 21 21 24 24 25 25 25 25 25 26 27 27 27 28 28 29 30 30 30 30 31 31 31 32 32 32 33 34 34
6 4 4 9 11 12 14 14 14 14 14 15 16 16 18 20 21 22 22 22 25 26 25 25 25 25 26 27 28 29 30 31 31 32 32 33 33 33 33 33 34 35 36 37
5 3 3 7 10 12 13 13 14 15 15 16 17 16 13 14 14 15 18 20 22 24 25 26 27 27 27 28 29 29 30 31 32 32 33 33 33 34 34 35 36 37 38 39
5 2 3 8 10 12 14 13 13 13 14 16 17 17 16 15 15 15 15 16 18 20 22 25 26 27 28 29 29 30 31 31 32 33 34 34 35 35 36 37 38 39 40 41
5 1 3 6 8 11 13 12 12 12 15 17 18 19 19 19 18 18 17 17 18 20 22 23 24 26 28 28 29 30 31 32 33 33 34 35 36 37 37 38 39 40 41 42
5 2 1 5 7 9 10 9 10 12 14 16 17 18 19 19 19 19 18 17 16 18 22 22 23 25 27 28 30 31 31 32 33 33 34 35 35 36 37 38 39 41 41 42
5 3 1 4 6 6 7 7 9 12 14 15 17 18 19 20 20 20 19 19 18 19 21 22 23 25 27 28 28 29 30 31 31 32 32 33 34 35 36 37 38 39 40 40
4 3 2 1 2 4 4 5 7 10 12 14 16 17 18 19 19 18 19 19 19 20 21 22 23 25 26 27 28 28 29 29 29 30 31 32 33 34 35 35 36 36 37 37
4 3 3 4 4 3 3 5 6 9 11 14 15 16 17 17 18 18 18 19 19 19 20 21 22 23 24 26 26 27 27 27 28 28 29 29 30 30 31 32 33 33 33 34
4 5 5 5 6 5 7 9 10 11 13 15 16 17 18 17 17 16 15 16 16 17 17 18 20 21 22 23 24 24 24 25 25 25 26 26 27 28 29 29 29 29 30 31
6 6 7 8 9 9 11 12 13 14 14 16 16 17 16 16 15 14 13 13 14 14 15 16 17 19 20 21 22 22 22 23 23 24 24 24 24 24 24 25 25 26 27 28
6 7 9 10 11 12 13 14 15 16 16 16 16 15 14 13 12 11 11 12 13 14 14 14 15 16 16 17 18 19 20 20 21 21 21 21 21 21 22 22 23 23 24 25
6 7 9 11 12 13 14 15 15 16 15 15 14 12 12 11 11 11 10 10 11 12 13 13 13 14 14 15 16 17 17 18 18 18 19 19 19 20 20 21 21 20 20 20
5 7 8 11 12 13 14 15 15 15 14 14 13 12 11 10 10 9 9 9 9 10 10 11 12 12 13 14 15 15 15 16 16 17 17 17 18 18 17 17 17 16 15 15
4 6 9 11 12 13 15 16 16 16 15 13 13 12 11 10 10 9 8 8 8 8 8 9 10 11 12 13 14 14 15 15 15 15 15 15 15 14 13 13 13 12 12 11
5 6 9 10 12 14 16 17 17 17 16 14 13 12 11 10 9 8 8 7 7 7 7 8 9 10 11 11 12 12 13 14 14 14 14 13 12 11 11 11 11 10 10 9
4 6 8 11 13 15 17 18 18 17 17 15 14 12 11 11 10 9 8 8 8 8 8 8 8 9 10 10 11 11 11 12 12 11 11 10 10 10 9 9 9 8 8 8
Wind_Direction
270 258 249 243 241 234 222 220 217 206 206 220 216 211 209 211 216 220 224 229 233 237 240 243 244 241 240 237 233 228 225 225 226 227 228 230 231 234 237 243 248 254 256 258
262 247 240 233 227 221 213 214 211 198 199 214 214 212 207 205 210 214 218 223 229 235 238 240 240 243 244 239 231 226 227 228 226 228 231 232 234 238 243 247 252 257 260 263
263 248 235 229 223 219 211 213 207 198 198 204 208 210 208 206 209 213 218 223 228 234 238 240 242 245 243 237 229 228 228 230 233 232 233 236 240 245 248 251 255 258 262 266
270 252 240 235 228 223 216 215 215 210 203 196 205 218 213 213 214 216 220 224 228 233 237 239 244 248 246 243 237 233 230 234 234 235 238 240 243 246 248 252 256 259 263 268
288 265 252 240 230 221 220 218 218 214 208 201 208 220 220 220 220 221 223 228 233 236 237 240 244 250 254 252 249 245 235 233 235 238 241 242 243 246 250 255 257 261 266 271
299 280 265 249 227 216 214 215 217 212 211 210 207 218 221 222 228 230 230 232 236 239 240 243 246 250 253 256 256 248 240 242 244 245 247 250 250 251 255 260 264 268 271 272
303 287 268 248 221 208 210 214 214 210 214 214 211 221 224 222 228 231 234 236 237 237 240 245 249 252 255 260 260 258 253 251 250 251 254 256 258 261 265 269 271 272 276 277
307 287 262 237 216 206 204 208 209 206 209 212 216 225 229 231 232 232 234 237 240 242 244 248 250 252 257 260 262 262 265 260 256 258 260 261 265 267 270 274 277 278 282 284
310 288 257 223 209 206 201 204 204 208 211 218 223 233 237 236 237 237 235 235 239 242 244 247 248 252 255 257 258 261 263 264 264 264 264 268 271 273 276 279 282 286 289 289
320 295 233 206 198 196 195 198 207 214 222 229 232 243 248 247 248 243 239 238 239 241 242 246 248 249 253 257 260 262 262 264 267 269 269 271 276 278 279 282 285 287 289 288
322 298 216 201 197 197 200 205 213 223 231 238 245 254 257 257 255 244 242 242 242 242 242 245 248 251 255 258 260 262 263 265 267 269 271 274 277 278 279 280 282 284 285 286
339 310 211 193 192 197 203 213 226 236 244 248 257 270 270 274 269 258 252 249 247 245 245 247 250 253 257 259 261 262 263 265 267 270 272 274 276 277 277 278 280 282 284 285
350 326 194 187 192 200 208 218 234 242 247 255 263 273 283 293 297 287 273 262 257 254 251 249 252 255 258 260 261 263 264 266 268 270 271 273 274 275 277 278 280 282 283 285
3 16 197 198 206 208 213 220 236 248 256 262 268 276 279 286 292 289 284 278 268 259 253 252 253 257 259 261 263 264 266 267 268 270 271 272 274 275 277 278 281 282 284 285
18 10 213 203 208 212 217 227 240 254 263 270 274 276 281 285 283 285 285 279 268 262 256 255 257 260 262 264 265 266 266 268 269 270 271 273 274 276 278 279 281 283 284 286
26 27 81 186 210 216 232 249 258 266 274 280 280 278 281 283 282 282 279 277 278 274 267 266 264 263 264 266 266 267 269 270 272 273 274 275 276 277 279 280 282 284 286 287
29 34 57 184 224 245 253 277 285 289 288 290 291 289 287 286 284 283 280 279 278 274 269 266 265 265 265 267 268 270 271 272 273 274 275 276 277 278 279 281 284 286 288 289
36 25 21 7 336 319 318 336 324 312 304 300 299 299 296 294 289 284 282 281 280 276 270 266 265 266 267 268 270 271 272 273 273 275 276 277 278 279 281 283 285 287 289 290
46 30 23 15 5 356 348 346 337 327 318 310 306 305 303 299 296 291 287 283 278 275 272 269 267 269 269 268 268 269 270 272 273 275 277 278 280 282 284 286 287 289 290 292
33 25 22 20 12 6 353 343 338 331 325 319 315 312 310 306 300 296 291 284 277 274 274 272 270 270 271 271 271 272 273 274 275 277 279 281 283 285 286 287 288 290 292 295
36 25 16 12 8 2 354 349 342 339 333 326 321 317 314 311 306 299 293 285 280 277 275 274 272 272 272 273 273 273 274 275 276 277 279 281 283 284 286 288 291 293 295 297
39 23 15 13 10 4 358 354 347 342 337 333 329 326 322 317 313 306 300 294 287 282 277 275 274 273 273 274 273 273 274 275 276 277 279 281 284 285 286 289 292 295 298 301
45 29 20 16 12 7 3 358 352 348 346 343 340 337 333 329 324 315 309 303 296 290 284 279 277 276 277 278 277 275 275 276 276 277 279 282 284 284 286 289 293 297 303 308
59 36 26 19 13 9 5 1 360 359 356 353 350 346 341 339 335 327 320 313 304 299 292 285 283 283 283 282 281 279 278 277 276 277 278 280 282 284 286 289 294 301 308 314
68 41 29 21 16 12 9 6 5 3 2 359 357 354 351 347 345 339 332 324 317 312 305 298 295 293 292 290 287 284 281 279 279 278 277 280 282 283 285 290 297 306 310 315
66 44 32 24 17 14 12 10 9 8 7 5 3 1 0 358 355 351 346 339 333 328 320 313 308 305 303 299 294 289 285 283 281 279 279 281 283 282 285 290 298 305 309 315
Height
5781 5782 5781 5781 5782 5783 5784 5785 5787 5789 5791 5792 5793 5796 5799 5803 5807 5812 5817 5822 5825 5829 5832 5835 5837 5840 5843 5845 5846 5847 5850 5852 5855 5856 5858 5860 5861 5861 5862 5863 5862 5863 5863 5864
5778 5778 5778 5777 5778 5779 5780 5782 5783 5786 5788 5789 5790 5792 5795 5798 5803 5807 5811 5816 5820 5824 5827 5829 5831 5835 5837 5839 5839 5840 5842 5845 5848 5850 5852 5854 5855 5856 5857 5858 5858 5858 5858 5858
5775 5775 5773 5774 5774 5776 5777 5779 5780 5783 5784 5786 5788 5789 5792 5795 5799 5803 5807 5810 5815 5818 5821 5824 5827 5829 5829 5828 5830 5831 5835 5837 5840 5843 5845 5848 5850 5851 5851 5852 5852 5852 5851 5852
5772 5771 5770 5770 5771 5772 5774 5776 5778 5779 5781 5783 5786 5787 5790 5792 5796 5800 5803 5806 5810 5813 5816 5819 5821 5822 5822 5824 5826 5825 5827 5831 5834 5836 5839 5841 5843 5844 5845 5845 5845 5846 5846 5846
5769 5768 5767 5767 5768 5769 5771 5773 5775 5776 5778 5781 5783 5785 5788 5790 5793 5797 5799 5802 5806 5809 5811 5814 5816 5817 5818 5819 5820 5820 5822 5824 5828 5830 5832 5834 5835 5836 5837 5838 5838 5838 5838 5838
5767 5765 5764 5764 5765 5766 5768 5770 5771 5774 5776 5779 5782 5783 5785 5788 5791 5793 5796 5799 5801 5804 5807 5809 5811 5812 5814 5814 5814 5815 5816 5818 5821 5823 5825 5827 5828 5829 5830 5830 5830 5830 5831 5831
5764 5762 5761 5760 5761 5763 5765 5767 5769 5771 5774 5777 5779 5780 5782 5784 5787 5789 5792 5794 5796 5799 5802 5804 5806 5807 5808 5809 5809 5810 5810 5812 5815 5817 5818 5820 5821 5821 5822 5822 5822 5823 5823 5822
5760 5759 5758 5758 5759 5761 5763 5765 5768 5770 5772 5775 5776 5777 5779 5781 5782 5784 5786 5789 5791 5794 5796 5798 5799 5802 5803 5804 5805 5805 5806 5807 5809 5811 5812 5813 5814 5814 5814 5814 5814 5815 5815 5814
5756 5756 5755 5755 5757 5759 5761 5763 5766 5768 5769 5771 5773 5774 5775 5775 5777 5779 5781 5784 5786 5789 5790 5792 5794 5796 5797 5799 5800 5801 5801 5803 5804 5805 5807 5807 5807 5807 5807 5808 5808 5807 5807 5807
5754 5754 5753 5754 5756 5758 5760 5762 5764 5765 5767 5768 5771 5771 5771 5771 5772 5774 5776 5779 5781 5783 5785 5787 5789 5790 5792 5793 5794 5795 5796 5797 5797 5798 5799 5800 5800 5800 5800 5800 5800 5800 5799 5799
5753 5753 5753 5754 5755 5757 5759 5760 5761 5763 5765 5766 5767 5770 5767 5767 5768 5769 5771 5773 5775 5777 5779 5781 5783 5785 5786 5787 5788 5789 5790 5791 5791 5792 5792 5792 5793 5793 5793 5793 5793 5792 5791 5790
5753 5753 5752 5753 5754 5755 5757 5759 5760 5762 5763 5763 5764 5767 5763 5763 5762 5763 5766 5768 5770 5772 5774 5776 5777 5778 5780 5781 5782 5783 5783 5784 5784 5784 5785 5785 5785 5785 5785 5785 5784 5784 5782 5781
5753 5753 5752 5753 5755 5755 5755 5757 5758 5760 5760 5761 5761 5764 5760 5760 5760 5760 5761 5763 5765 5766 5768 5769 5771 5772 5773 5774 5775 5775 5776 5776 5776 5777 5777 5777 5777 5777 5777 5776 5775 5774 5772 5771
5753 5753 5753 5753 5752 5752 5753 5755 5756 5758 5758 5758 5758 5759 5758 5758 5758 5758 5758 5758 5759 5760 5761 5763 5764 5765 5766 5767 5768 5768 5768 5769 5769 5769 5770 5769 5769 5769 5768 5767 5766 5764 5762 5761
5753 5753 5752 5752 5751 5751 5752 5753 5754 5755 5755 5755 5755 5755 5754 5754 5754 5754 5754 5753 5753 5754 5755 5756 5757 5758 5759 5759 5760 5760 5760 5760 5761 5761 5761 5760 5760 5759 5758 5757 5756 5754 5752 5750
5753 5753 5752 5752 5751 5751 5752 5752 5753 5753 5753 5752 5751 5751 5750 5750 5749 5749 5748 5748 5748 5748 5749 5750 5750 5751 5751 5752 5752 5752 5752 5752 5752 5752 5751 5751 5751 5750 5749 5748 5746 5744 5742 5739
5754 5753 5752 5752 5751 5751 5751 5751 5750 5750 5749 5748 5747 5747 5745 5744 5744 5743 5743 5743 5742 5742 5743 5743 5743 5743 5743 5743 5744 5744 5744 5744 5743 5743 5743 5742 5741 5741 5740 5738 5736 5734 5732 5729
5754 5753 5752 5751 5752 5750 5751 5749 5748 5747 5745 5744 5742 5741 5740 5739 5738 5737 5736 5736 5736 5736 5735 5736 5736 5736 5737 5736 5736 5736 5736 5736 5735 5735 5735 5734 5733 5732 5731 5729 5727 5725 5723 5720
5753 5753 5752 5751 5750 5749 5748 5747 5745 5744 5742 5740 5738 5736 5734 5733 5731 5731 5731 5731 5730 5730 5729 5729 5729 5729 5729 5729 5729 5729 5729 5729 5728 5728 5727 5726 5725 5724 5723 5721 5719 5717 5714 5712
5753 5752 5752 5750 5749 5748 5748 5745 5742 5742 5738 5736 5734 5731 5730 5728 5727 5727 5726 5726 5725 5725 5724 5724 5724 5723 5723 5723 5723 5723 5722 5722 5722 5721 5720 5719 5718 5717 5715 5714 5712 5709 5707 5704
5753 5752 5751 5750 5749 5747 5745 5742 5740 5739 5736 5732 5730 5727 5726 5724 5724 5723 5721 5721 5720 5720 5719 5719 5719 5718 5718 5717 5717 5716 5716 5716 5715 5714 5714 5712 5711 5710 5709 5707 5705 5703 5700 5697
5753 5753 5751 5750 5748 5748 5744 5741 5739 5736 5732 5729 5726 5724 5723 5721 5720 5718 5717 5716 5716 5715 5715 5714 5714 5713 5713 5713 5712 5711 5711 5710 5709 5708 5708 5707 5706 5704 5703 5701 5699 5697 5694 5691
5753 5753 5752 5751 5750 5746 5743 5740 5737 5734 5730 5727 5724 5722 5720 5719 5717 5715 5714 5713 5712 5711 5711 5710 5710 5709 5709 5708 5707 5706 5706 5705 5704 5703 5702 5701 5700 5699 5697 5696 5694 5692 5690 5687
5754 5753 5752 5750 5748 5745 5742 5739 5736 5732 5729 5726 5723 5721 5719 5717 5715 5713 5712 5710 5709 5708 5707 5707 5706 5705 5704 5703 5702 5701 5701 5700 5699 5698 5697 5696 5695 5694 5693 5691 5690 5688 5686 5684
5754 5753 5751 5750 5748 5745 5742 5738 5735 5731 5728 5725 5722 5719 5717 5715 5713 5711 5710 5708 5707 5706 5704 5703 5702 5701 5700 5699 5698 5697 5696 5695 5694 5693 5692 5692 5691 5690 5689 5688 5686 5685 5683 5681
5754 5754 5752 5750 5748 5745 5742 5738 5734 5731 5727 5724 5721 5718 5716 5714 5712 5710 5708 5706 5705 5703 5702 5700 5699 5698 5696 5695 5694 5692 5691 5690 5689 5689 5688 5688 5687 5686 5686 5685 5683 5682 5681 5679